Home   Weather   Ålgård   Past weeks

Flag for Norway Past Weather in Ålgård, Norway — Yesterday and Last 2 Weeks

Now
45 °F

Broken clouds.


Feels Like: 37 °F
Forecast: 39 / 45 °F
Wind: 18 mph from Northwest

Location: Stavanger / Sola

Current Time: Dec 5, 2016 at 11:47:00 am

Latest Report: Dec 5, 2016 at 10:50 am


Visibility: N/A

Pressure: 30.21 "Hg

Humidity: 81%

Dew Point: 39 °F

Location of ÅlgårdLocation

Past Weather in Ålgård — Graph

°F

Ålgård Temperature Yesterday

Maximum temperature yesterday: 45 °F (at 12:20 am)
Minimum temperature yesterday: 43 °F (at 9:50 am)
Average temperature yesterday: 45 °F

High & Low Weather Summary for the Past Weeks

 TemperatureHumidityPressure
High50 °F (Nov 22, 12:20 pm)100% (Nov 23, 2:50 am)30.51 "Hg (Nov 23, 2:50 am)
Low25 °F (Nov 28, 4:50 am)61% (Nov 26, 3:50 pm)29.27 "Hg (Nov 20, 7:50 pm)
Average41 °F84%30.05 "Hg
* Reported Nov 20 10:20 am — Dec 5 10:20 am, Ålgård, Weather by CustomWeather, © 2016

Note: Actual official high and low records may vary slightly from our data, if they occured in-between our weather recording intervals... More about our weather records

Advertising

Ålgård Weather History for the Previous 24 Hours

Scroll right to see more
 ConditionsComfort  
Time TempWeatherWind HumidityBarometerVisibility
10:20 am
Mon, Dec 5
45 °FBroken clouds.18 mph87%30.21 "HgN/A
9:50 am45 °FPartly sunny.20 mph87%30.21 "HgN/A
9:20 am45 °FMostly cloudy.16 mph81%30.21 "HgN/A
8:50 am45 °FPartly cloudy.18 mph81%30.21 "HgN/A
8:20 am45 °FPartly cloudy.15 mph81%30.21 "HgN/A
7:50 am45 °FPartly cloudy.15 mph87%30.21 "HgN/A
7:20 am45 °FPartly cloudy.14 mph87%30.21 "HgN/A
6:50 am45 °FPartly cloudy.13 mph87%30.21 "HgN/A
6:20 am43 °FPartly cloudy.12 mph87%30.21 "HgN/A
5:50 am45 °FPartly cloudy.14 mph87%30.21 "HgN/A
4:50 am43 °FPassing clouds.13 mph93%30.24 "HgN/A
3:50 am43 °FPassing clouds.15 mph93%30.24 "HgN/A
2:50 am45 °FPassing clouds.10 mph81%30.24 "HgN/A
2:20 am45 °FPassing clouds.10 mph76%30.24 "HgN/A
1:50 am45 °FPassing clouds.9 mph76%30.24 "HgN/A
12:50 am45 °FPassing clouds.8 mph87%30.27 "HgN/A
12:20 am45 °FPassing clouds.10 mph87%30.27 "HgN/A
11:50 pm
Sun, Dec 4
45 °FPassing clouds.10 mph87%30.27 "HgN/A
11:20 pm45 °FPassing clouds.10 mph87%30.27 "HgN/A
10:50 pm45 °FPassing clouds.9 mph93%30.27 "HgN/A
10:20 pm45 °FPassing clouds.10 mph93%30.27 "HgN/A
9:50 pm45 °FPartly cloudy.7 mph93%30.27 "HgN/A
9:20 pm45 °FPartly cloudy.7 mph93%30.27 "HgN/A
8:50 pm45 °FPartly cloudy.8 mph93%30.27 "HgN/A
8:20 pm45 °FPartly cloudy.7 mph93%30.30 "HgN/A
7:50 pm45 °FPassing clouds.7 mph93%30.27 "HgN/A
7:20 pm45 °FPassing clouds.7 mph93%30.27 "HgN/A
6:50 pm45 °FPartly cloudy.8 mph93%30.27 "HgN/A
6:20 pm45 °FPartly cloudy.8 mph93%30.27 "HgN/A
5:50 pm45 °FPassing clouds.9 mph93%30.27 "HgN/A
5:20 pm45 °FPassing clouds.9 mph93%30.27 "HgN/A
4:50 pm45 °FPassing clouds.6 mph93%30.27 "HgN/A
4:20 pm45 °FPartly cloudy.7 mph93%30.27 "HgN/A
3:50 pm45 °FPartly cloudy.9 mph93%30.27 "HgN/A
3:20 pm45 °FBroken clouds.8 mph87%30.27 "HgN/A
2:50 pm45 °FBroken clouds.8 mph87%30.30 "HgN/A
2:20 pm45 °FBroken clouds.10 mph93%30.30 "HgN/A
1:50 pm45 °FBroken clouds.10 mph87%30.30 "HgN/A
1:20 pm45 °FBroken clouds.10 mph93%30.30 "HgN/A
12:50 pm45 °FPartly sunny.9 mph93%30.30 "HgN/A
12:20 pm45 °FPartly sunny.7 mph87%30.30 "HgN/A
11:50 am45 °FBroken clouds.8 mph87%30.30 "HgN/A
11:20 am45 °FPartly sunny.8 mph93%30.30 "HgN/A
Weather by CustomWeather, © 2016

See weather overviewHow to use our weather pages